sat.trackr.live / text

‹ back to catalog

STARLINK-36279

NORAD 67193 · 2025-304B

PAYLOAD ACTIVE UNKNOWN

§ Identity

Operator
Country
US
Launch date
2025-12-17
Launch site
AFWTR
Launch vehicle
Mass (kg)
RCS (m²)

Purposes: comms

External: N2YO · Heavens-Above · Gunter

§ Orbital elements

Epoch: 2026-09-19T16:24:28.305216Z

Period
96.11 min
Inclination
70.0021°
Eccentricity
0.0002933
Mean motion
14.98336926 rev/d
Perigee alt
570.0 km
Apogee alt
574.1 km
Semi-major
6,950.2 km
B*
2.7155e-4
RAAN
45.3113°
Arg perigee
266.3772°
Mean anomaly
93.7052°
Rev number
4,294

§ Raw data

STARLINK-362791 67193U 25304B   26262.68366094  .00003149  00000+0  27155-3 0  99992 67193  70.0021  45.3113 0002933 266.3772  93.7052 14.98336926 42941

JSON: /api/v1/satellites/67193 · /tle

For live sub-satellite position, see the globe view (requires WebGL).

§ Visibility from observer

Set your observer location to see the next 7 days of passes ≥ 10°. The values pass through the URL so the page stays shareable.

No JS? Fill the form by hand. The geolocation button needs JavaScript.